YEAR,MONTH,DAY,HOUR,MINUTE,LATITUDE,LONGITUDE,WDIR,WSPD_MPS,WGUST_MPS,WSPD_SD,WDIR_SD,ATMP_C,RH_PCT,APRES_MB,WTMP_C,PITCH,ROLL,VOLT,SOLAR_RAD,RELEASE_STATUS
2010,8,13,4,0,70.3723,-146.0421,175,2.2,2.7,0.2,32,3.7,98,1018,3,-4,4,13.6,0,0
2010,8,13,5,0,70.3723,-146.0421,80,2,2.4,0.2,40,3.7,98,1018,3,9,5,13.7,0,0
2010,8,13,6,0,70.3722,-146.0421,72,1.2,1.6,0.2,34,4.2,98,1018,3,5,12,13.3,0,0
2010,8,13,7,0,70.3722,-146.042,59,2.4,2.9,0.2,31,3.7,98,1018,3,-11,9,13.2,0,0
2010,8,13,8,0,70.3722,-146.042,69,2.3,2.7,0.2,28,3.5,98,1018,2.9,0,5,13.1,0,0
2010,8,13,9,0,70.3723,-146.0421,124,2,2.3,0.2,25,3.4,98,1019,2.8,2,5,13,0,0
2010,8,13,10,0,70.3722,-146.042,31,2,3.4,0.6,72,3.4,98,1019,2.9,-1,14,13,0,0
2010,8,13,11,0,70.3722,-146.042,329,2.3,2.6,0.2,28,3.2,98,1019,2.9,0,3,13,0,0
2010,8,13,12,0,70.3722,-146.0421,116,1.8,2.5,0.2,41,3.4,99,1019,2.8,2,7,12.9,0,0
2010,8,13,13,0,70.3722,-146.042,85,2.3,2.6,0.2,32,3.4,99,1019,2.8,-7,8,12.9,0,0
2010,8,13,14,0,70.3723,-146.0421,208,1.3,1.7,0.2,13,3.3,99,1020,2.9,2,4,12.9,0,0
2010,8,13,15,0,70.3723,-146.042,239,1.3,1.7,0.2,11,3.1,99,1020,2.9,-2,5,12.9,0,0
2010,8,13,16,0,70.3722,-146.0419,223,1.6,2,0.2,10,3,99,1020,2.9,-4,3,12.9,0,0
2010,8,13,17,0,70.3722,-146.0419,237,1.6,1.8,0.1,10,3.8,98,1021,3,1,1,13,0,0
2010,8,13,18,0,70.3723,-146.0419,246,2.3,2.6,0.2,13,5.1,98,1021,3.2,-5,7,13.1,0,0
2010,8,13,19,0,70.3723,-146.0419,243,2.5,2.8,0.2,13,5.2,98,1021,3.3,4,5,13.4,0,0
2010,8,13,20,0,70.3722,-146.0419,256,2.7,3.1,0.2,11,6,98,1022,3.2,0,2,13.8,0,0
2010,8,13,21,0,70.3722,-146.0419,274,2,2.2,0.2,11,7.3,97,1022,3.9,-1,4,13.8,0,0
2010,8,13,22,0,70.3722,-146.0419,319,0.7,0.8,0.1,13,7.1,96,1022,4.3,1,2,14.5,0,0
2010,8,13,23,0,70.3722,-146.0419,127,0.2,0.5,0.1,66,8.5,95,1022,4.5,-1,5,13.5,0,0
2010,8,14,0,0,70.3722,-146.0418,330,1.2,1.4,0.1,23,9.2,94,1023,4.2,4,8,13.8,0,0
2010,8,14,1,0,70.3722,-146.042,99,1.4,1.7,0.1,55,6.4,95,1023,4.7,0,2,13.8,0.7,0
2010,8,14,2,0,70.3723,-146.0419,106,1.5,1.7,0.1,55,8.3,94,1023,4.5,-2,5,13.8,0,0
2010,8,14,3,0,70.3722,-146.042,99,1.4,1.7,0.1,55,6.4,95,1023,4.7,0,2,13.8,0.7,0
2010,8,14,4,0,70.3723,-146.0419,144,1.3,1.5,0.1,16,5.8,93,1024,3.6,-3,4,13.5,0,0
2010,8,14,5,0,70.3722,-146.0418,203,1.4,1.7,0.2,8,5.3,98,1024,3.7,2,2,13.3,0,0
2010,8,14,6,0,70.3722,-146.0417,193,1.8,2.2,0.2,10,5.2,98,1024,3.9,1,3,13.3,0,0
2010,8,14,7,0,70.3722,-146.0417,3,0.1,0.1,0,54,5,98,1024,4.3,1,1,13.1,0,0
2010,8,14,8,0,70.3722,-146.0418,121,1,1.3,0.1,20,4.9,98,1024,4.4,6,6,13.1,0,0
2010,8,14,9,0,70.3722,-146.0419,174,1.8,2.1,0.1,8,4.6,99,1024,4.5,5,2,13,0,0
2010,8,14,10,0,70.3722,-146.0419,21,2.1,2.4,0.2,37,4.4,99,1024,4.2,-1,5,13,0,0
2010,8,14,11,0,70.3722,-146.0419,356,2.4,2.8,0.2,7,4.3,99,1024,4.2,-2,-2,13,0,0
2010,8,14,12,0,70.3722,-146.0419,41,2.7,3.1,0.2,8,3.8,99,1024,4.3,2,1,13,0,0
2010,8,14,14,0,70.3722,-146.0418,40,2.2,2.5,0.1,11,4.4,99,1024,4.2,3,3,13,0,0
2010,8,14,15,0,70.3722,-146.0419,72,2.6,3,0.2,14,4.2,99,1024,3.9,-1,4,13.1,0,0
2010,8,14,16,0,70.3722,-146.0418,134,2.3,2.6,0.1,31,3.9,99,1024,3.1,3,2,13.2,0,0
2010,8,14,17,0,70.3722,-146.0418,152,2.6,2.9,0.1,8,3.8,99,1024,2,1,4,13.6,0,0
2010,8,14,18,0,70.3723,-146.0418,154,2.4,2.8,0.2,8,3.6,99,1024,1.7,5,2,15.7,0,0
2010,8,14,19,0,70.3722,-146.0418,157,2.5,2.8,0.2,10,3.8,98,1024,2.4,4,6,13.8,0,0
2010,8,14,20,0,70.3722,-146.0419,160,4.4,5,0.3,10,4.9,98,1024,2.9,0,1,13.8,0,0
2010,8,14,21,0,70.3722,-146.0421,45,5,5.8,0.4,25,5.5,97,1024,3.5,-1,1,14.7,0,0
2010,8,14,22,0,70.3722,-146.0422,52,5.3,6.2,0.4,40,5.6,96,1024,3.6,-1,13,13.7,0,0
2010,8,14,23,0,70.3722,-146.0423,64,5.1,5.6,0.3,45,5.4,97,1024,3.3,-4,10,13.8,0,0
2010,8,15,0,0,70.3722,-146.0423,61,5.4,6.1,0.4,42,5.6,97,1024,3.5,0,2,14.1,0,0
2010,8,15,1,0,70.3722,-146.0423,95,6.7,7.7,0.5,47,5.5,97,1023,3.7,3,4,14.1,0,0
2010,8,15,2,0,70.3723,-146.0423,89,7.2,8.4,0.5,nan,5,98,1023,3.6,-17,5,13.9,617.8,0
2010,8,15,3,0,70.3724,-146.0425,92,7.2,8.3,0.7,52,4.4,nan,1023,3.9,3,-7,13.9,0,0
2010,8,15,4,0,70.3724,-146.0425,104,7.6,8.7,0.7,48,4.5,99,1022,2.9,2,7,13.5,0,0
2010,8,15,5,0,70.3723,-146.0424,110,8.3,9.9,0.8,54,4.4,99,1022,2.5,8,5,13.3,0,0
2010,8,15,6,0,70.3724,-146.0424,112,8.1,10,0.8,52,4.4,99,1022,2.3,-1,12,13.1,0,0
2010,8,15,7,0,70.3723,-146.0423,117,8,10.5,0.7,48,4.5,99,1022,2.2,8,2,13.1,26,0
2010,8,15,8,0,70.3724,-146.0423,116,8.6,10.4,0.8,54,4.2,99,1021,2.1,-2,3,13,0,0
2010,8,15,9,0,70.3723,-146.0424,104,8.4,9.9,0.7,54,4.3,99,1021,1.9,1,-1,13,0,0
2010,8,15,10,0,70.3723,-146.0423,102,7,8.3,0.6,49,4.2,99,1021,1.7,3,-2,13,0,0
2010,8,15,12,0,70.3723,-146.0423,114,6.2,7.5,0.6,58,4.4,99,1020,1.7,-6,8,12.9,0,0
2010,8,15,13,0,70.3723,-146.0425,92,7.9,9,0.7,59,4.4,99,1020,1.7,-7,10,13,0,0
2010,8,15,14,0,70.3723,-146.0424,95,7.8,10.1,0.8,56,4.4,99,1019,1.6,-5,10,12.9,0,0
2010,8,15,15,0,70.3723,-146.0425,103,8.3,10.3,0.8,55,4.3,99,1018,1.7,-3,10,13,0,0
2010,8,15,16,0,70.3724,-146.0424,109,7.2,9,0.6,56,4,99,1018,1.9,-4,15,13,0,0
2010,8,15,17,0,70.3724,-146.0424,103,8.5,10.3,0.8,58,4.2,99,1018,2.1,-22,11,13.1,0,0
2010,8,15,18,0,70.3723,-146.0424,88,9.4,11.1,0.9,66,4.4,99,1017,2.4,0,2,15.3,0,0
2010,8,15,19,0,70.3723,-146.0425,95,9.3,11.3,0.9,66,4.4,99,1017,2.5,-5,3,15.7,0,0
2010,8,15,20,0,70.3724,-146.0424,124,6.7,9.5,1,66,4,99,1017,2.6,-9,-7,13.8,0,0
2010,8,15,21,0,70.3723,-146.0426,104,9,11.9,1,65,4.2,99,1016,1.8,-10,0,15.5,0,0
2010,8,15,22,0,70.3724,-146.0425,123,9,10.6,0.8,62,3.9,99,1015,1.5,6,2,15.7,0,0
2010,8,15,23,0,70.3723,-146.0425,119,8.7,10.1,0.8,62,4,99,1015,1.7,-15,13,15.7,0,0
2010,8,16,0,0,70.3724,-146.0426,120,9.2,11.2,0.9,64,4.3,99,1014,1.7,3,7,13.8,0,0
2010,8,16,1,0,70.3723,-146.0427,110,9.6,11.3,0.9,64,4.7,95,1013,1.4,0,-2,15.5,0,0
2010,8,16,2,0,70.3724,-146.0426,104,10.3,12.8,1.1,59,5.1,92,1012,1.3,-3,22,14.4,0,0
2010,8,16,3,0,70.3724,-146.0429,109,10.7,13,1.2,55,5.2,91,1011,1.2,-4,15,14,0,0
2010,8,16,4,0,70.3725,-146.0429,109,10.8,12.6,1.1,62,5.2,92,1010,1,1,10,13.3,0,0
2010,8,16,5,0,70.3725,-146.0428,107,11.1,12.9,1.1,59,5.4,92,1010,1.6,-1,11,14.1,0,0
2010,8,16,6,0,70.3725,-146.0429,107,11.1,14.1,1.7,61,5.2,92,1009,1.6,-10,1,13.5,0,0
2010,8,16,7,0,70.3725,-146.0427,110,10.6,13.1,1.2,61,5,92,1008,1.7,4,0,13.2,0,0
2010,8,16,8,0,70.3725,-146.0427,117,9.9,12.1,1.1,59,4.8,92,1008,1.8,-15,1,13.1,0,0
2010,8,16,9,0,70.3725,-146.0429,110,10,12.2,1,55,4.5,92,1007,1.7,-11,9,13.1,0,0
2010,8,16,10,0,70.3725,-146.0428,117,8.2,9.9,0.9,56,4.1,92,1008,1.5,-11,9,13,0,0
2010,8,16,11,0,70.3725,-146.0427,119,6.6,8.3,0.8,54,3.7,93,1008,1.1,5,7,13,0,0
2010,8,16,12,0,70.3725,-146.0427,110,6.4,7.9,0.8,54,3.4,94,1008,0.8,11,1,13,0,0
2010,8,16,13,0,70.3725,-146.0427,114,5.1,6.6,0.6,52,3,94,1008,0.7,6,15,13,0,0
2010,8,16,14,0,70.3725,-146.0325,102,4.7,6.1,0.6,51,2.8,94,1008,0.8,-3,12,13.1,0,0
2010,8,16,15,0,70.3724,-146.0428,102,4.7,5.7,0.6,52,2.7,93,1008,1,-9,7,13.3,0,0
2010,8,16,16,0,70.3724,-146.0426,103,3.8,4.8,0.5,54,2.5,92,1008,1.3,-3,4,13.8,0,0
2010,8,16,17,0,70.3724,-146.0427,113,2.9,3.8,0.4,52,2.6,91,1008,1.5,-9,-3,13.8,0,0
2010,8,16,18,0,70.3724,-146.0427,175,1.3,2.5,0.4,49,5,92,1009,1.8,-4,10,13.8,0,0
2010,8,16,19,0,70.3724,-146.0426,271,4,5.3,0.6,18,5.3,95,1009,2,-1,-5,13.8,0,0
2010,8,16,20,0,70.3724,-146.0425,344,2.9,5.1,0.6,51,4.7,95,1009,2,-16,-3,13.8,0,0
2010,8,16,21,0,70.3724,-146.0425,264,3.7,4.8,0.6,20,4.8,95,1010,2.1,4,1,13.8,0,0
2010,8,16,22,0,70.3724,-146.0422,280,4.9,6,0.6,18,5.8,98,1010,2,5,2,13.8,0,0
2010,8,16,23,0,70.3723,-146.0425,319,3.3,4.1,0.3,23,5.6,98,1010,2,-1,-3,13.8,0,0
2010,8,17,0,0,70.3723,-146.0418,354,8.4,2.5,0.2,30,4.8,98,1010,2,-1,2,13.8,0,0
2010,8,17,1,0,70.3723,-146.0424,359,0.5,1.1,0.3,38,4.6,98,1010,2,7,-3,14.6,3.2,0
2010,8,17,2,0,70.3724,-146.0425,343,0.9,1.5,0.2,38,5.1,98,1009,1.7,-5,9,13.8,0,0
2010,8,17,3,0,70.3724,-146.0425,222,0.4,1,0.3,92,4.5,96,1009,2.1,-9,14,13.8,0,0
2010,8,17,4,0,70.3724,-146.0424,185,1.9,2.5,0.2,40,3.3,96,1009,2.1,3,8,14.4,0,0
2010,8,17,5,0,70.3723,-146.0423,343,1.4,1.8,0.2,35,3.2,97,1008,2,-1,7,15.1,0,0
2010,8,17,6,0,70.3723,-146.0423,23,1,1.7,0.2,32,3.9,98,1007,2.1,0,9,13.4,0,0
2010,8,17,7,0,70.3723,-146.0422,342,1.2,1.8,0.2,32,3.1,98,1007,2.1,-4,4,13.2,0,0
2010,8,17,8,0,70.3724,-146.0422,344,2.7,3.2,0.3,24,3.4,98,1006,2.2,7,14,13.1,0,0
2010,8,17,9,0,70.3723,-146.0423,7,3.6,4.4,0.3,23,3.6,97,1005,2,3,9,13,0,0
2010,8,17,10,0,70.3723,-146.0423,333,2.9,3.5,0.2,17,3.1,97,1004,1.8,3,-6,13,0,0
2010,8,17,11,0,70.3723,-146.0423,7,4.3,5.4,0.5,23,4.4,nan,1004,1.9,4,2,13,0,0
2010,8,17,12,0,70.3723,-146.0423,3,2.2,2.7,0.3,28,2.9,96,1003,1.9,1,0,13,0,0
2010,8,17,13,0,70.3723,-146.0423,18,2.4,3.1,0.3,27,2.9,97,1002,1.9,1,2,13,0,0
2010,8,17,14,0,70.3724,-146.0425,41,6.5,7.5,0.5,40,3.1,95,1000,1.9,5,-1,13,0,0
2010,8,17,15,0,70.3723,-146.0425,11,4.1,4.9,0.4,34,3,95,1000,1.9,-8,9,13.5,0,0
2010,8,17,16,0,70.3723,-146.0426,30,6,7.1,0.6,47,2.9,96,999,1.8,-8,5,13.4,0,0
2010,8,17,17,0,70.3723,-146.0425,92,3.2,3.9,0.3,56,2.8,98,999,1.8,-6,10,13.2,0,0
2010,8,17,18,0,70.3723,-146.0425,38,4.3,5.7,0.6,49,3.2,95,998,1.8,4,9,13.4,0,0
2010,8,17,19,0,70.3723,-146.0425,31,5.7,7.1,0.6,49,3.2,95,997,1.8,-1,13,13.8,0,0
2010,8,17,20,0,70.3723,-146.0426,35,7.5,8.7,0.7,52,3.6,95,997,1.7,-9,-2,13.8,0,0
2010,8,17,21,0,70.3724,-146.0427,42,6.5,8.2,0.7,54,3.7,95,997,1.8,5,-2,13.8,0,0
2010,8,17,22,0,70.3724,-146.0425,44,6,7.3,0.7,56,3.8,95,996,1.9,-1,-1,13.8,0,0
2010,8,17,23,0,70.3725,-146.0422,75,4.8,5.9,0.6,62,3.4,95,997,1.9,-18,10,13.8,0,0
2010,8,18,0,0,70.3724,-146.0421,110,2.6,3.2,0.5,31,3.1,95,996,1.8,-3,-2,13.8,0,0
2010,8,18,1,0,70.3724,-146.0421,114,1.9,2.7,0.4,35,2.8,95,996,1.6,3,10,13.7,0,0
2010,8,18,2,0,70.3724,-146.0419,143,1.5,2.2,0.3,32,2.7,95,996,1,-10,7,13.4,0,0
2010,8,18,3,0,70.3723,-146.0419,21,1.6,2.6,0.4,66,2.6,94,996,1.2,0,1,13.4,0,0
2010,8,18,4,0,70.3723,-146.0419,264,0.2,1.1,0.2,73,2.9,95,996,1.3,-6,2,13.2,0,0
2010,8,18,5,0,70.3723,-146.0419,161,1,1.8,0.3,47,2.3,95,997,1.4,-1,11,13.1,0,0
2010,8,18,6,0,70.3723,-146.0419,230,1.1,2,0.4,30,2.7,94,997,1.5,-3,2,13.1,0,0
2010,8,18,7,0,70.3723,-146.0419,203,1.5,2.6,0.4,30,2.8,95,998,1.6,-10,9,13,0,0
2010,8,18,8,0,70.3723,-146.0419,268,1.2,2.8,0.4,42,nan,95,998,2.1,2,7,13,0,0
2010,8,18,9,0,70.3723,-146.042,289,2,2.5,0.3,34,3.9,94,999,2,1,9,13,0,0
2010,8,18,10,0,70.3723,-146.042,311,1.4,1.9,0.2,41,4.1,95,1000,2.1,1,4,13,0,0
2010,8,18,11,0,70.3723,-146.042,237,1.6,2.6,0.4,35,4.4,96,1000,2.1,-7,5,13,0,0
2010,8,18,12,0,70.3723,-146.042,178,1.1,2.4,0.4,25,3.8,96,1001,2.1,6,-2,13,0,0
2010,8,18,13,0,70.3723,nan,289,2,2.9,0.3,37,3.9,nan,nan,2,1,9,13,12.8,0
2010,8,18,14,0,70.3723,-146.042,232,1.1,2.1,0.3,27,3.6,98,1002,2.1,-1,-1,12.9,0,0
2010,8,18,15,0,70.3723,-146.0419,203,1.6,2.7,0.4,27,5.1,98,1002,2.2,-1,8,12.9,0,0
2010,8,18,16,0,70.3723,-146.0419,199,0.5,1.2,0.3,45,5.9,98,1003,2.3,-1,6,12.9,0,0
2010,8,18,17,0,70.3723,-146.042,198,0.8,1.5,0.3,31,6.6,99,1004,2.4,0,0,12.9,0,0
2010,8,18,18,0,70.3723,-146.042,222,2.1,3.2,0.5,24,5.2,99,1004,2.6,2,1,12.7,0,0
2010,8,18,19,0,70.3723,-146.0419,216,2.5,3.5,0.4,16,4.1,99,1005,2.7,7,7,12.9,0,0
2010,8,18,20,0,70.3723,-146.0421,203,1.5,2.5,0.3,23,4.5,99,1006,2.6,3,7,12.9,0,0
2010,8,18,21,0,70.3723,-146.0421,215,1.4,2.1,0.3,27,4.2,99,1006,2.7,-2,4,13,0,0
2010,8,18,22,0,70.3723,-146.0421,199,1,1.6,0.2,32,4.3,99,1007,2.9,6,-1,13,0,0
2010,8,18,23,0,70.3723,-146.0421,260,1.1,1.7,0.2,34,4.8,99,1008,2.9,-5,7,13,0,0
2010,8,19,0,0,70.3723,-146.0422,224,0.6,1.2,0.2,35,4.8,99,1008,2.6,-4,13,13,0,0
2010,8,19,1,0,70.3723,-146.0422,38,0.2,0.6,0.1,30,5,99,1009,3.6,-8,4,13,0,0
2010,8,19,2,0,70.3723,-146.0422,40,0.7,1,0.1,32,5.2,nan,1009,3.9,-4,9,12.9,0,0
2010,8,19,3,0,70.3724,-146.0423,58,1.1,1.4,0.2,25,5.2,99,1010,3.7,0,5,12.9,0,0
2010,8,19,4,0,70.3724,-146.0422,37,1.3,1.8,0.2,27,5.1,99,1010,3.9,3,2,12.9,0,0
2010,8,19,5,0,70.3723,-146.0422,48,0.6,1.3,0.2,38,4.7,99,1010,3.8,-1,7,12.9,0,0
2010,8,19,6,0,70.3723,-146.0422,349,2.1,2.4,0.1,27,4.2,99,1011,3.3,0,5,12.9,0,0
2010,8,19,7,0,70.3723,-146.0422,13,2.2,2.6,0.2,24,4.1,99,1011,2.8,0,7,12.9,0,0
2010,8,19,8,0,70.3723,-146.0422,51,2.7,3.2,0.2,21,3.7,99,1011,3,1,-5,12.9,0,0
2010,8,19,9,0,70.3723,-146.0423,34,2.2,2.6,0.2,24,3.5,99,1012,3.1,-8,7,12.9,0,0
2010,8,19,10,0,70.3724,-146.0422,55,2.4,2.8,0.2,24,3.4,99,1012,3.1,-5,3,12.9,0,0
2010,8,19,11,0,70.3724,-146.0422,37,2.8,3.5,0.2,24,3.3,99,1012,2.9,-6,7,12.9,0,0
2010,8,19,12,0,70.3723,-146.0422,25,2.6,3.3,0.2,24,3.4,99,1013,2.7,-1,1,12.9,0,0
2010,8,19,13,0,70.3724,-146.0423,32,3.2,3.7,0.3,25,3.6,99,1013,2.7,1,5,12.9,0,0
2010,8,19,14,0,70.3724,-146.0423,66,3.2,3.7,0.3,25,3.6,99,1013,2.6,7,4,12.9,0,0
2010,8,19,15,0,70.3724,-146.0423,64,2.4,2.8,0.2,23,3.6,99,1014,2.6,2,3,12.9,0,0
2010,8,19,16,0,70.3724,-146.0422,31,2.2,2.5,0.2,23,3.2,99,1014,2.3,-1,1,12.8,0,0
2010,8,19,17,0,70.3724,-146.0423,24,2.1,2.4,0.2,23,3.4,99,1014,2.4,6,1,12.9,0,0
2010,8,19,18,0,70.3724,-146.0422,323,2.4,2.7,0.2,23,3.4,99,1015,2.4,0,6,13,0,0
2010,8,19,19,0,70.3724,-146.0422,322,1.4,1.9,0.2,32,3.5,99,1015,2.5,0,6,13.5,0,0
2010,8,19,20,0,70.3724,-146.0422,343,0.9,1.2,0.1,24,4,99,1016,2.7,-5,8,14.4,0,0
2010,8,19,21,0,70.3724,-146.0422,277,2,2.2,0.2,14,3.6,99,1016,2.9,2,3,13.8,0,0
2010,8,19,22,0,70.3724,-146.0422,298,2.7,3,0.2,13,3.8,99,1016,2.7,2,2,13.6,0,0
2010,8,19,23,0,70.3724,-146.0421,312,2.3,2.6,0.1,18,4,99,1016,2.7,-1,9,13.5,0,0
2010,8,20,0,0,70.3723,-146.0422,298,2.5,2.7,0.1,14,4.2,99,1017,2.9,0,-3,13.5,0,0
2010,8,20,1,0,70.3723,-146.0422,284,2.1,2.5,0.2,16,4,99,1017,3.1,1,9,13.5,0,0
2010,8,20,2,0,70.3724,-146.0422,337,2.2,2.5,0.2,17,3.6,99,1017,3.2,-4,5,13.5,0,0
2010,8,20,3,0,70.3724,-146.0422,8,1.8,2.1,0.2,21,3.5,99,1017,3.3,0,1,13.4,0,0
2010,8,20,4,0,70.3724,-146.0422,357,1.5,1.8,0.2,21,3.2,99,1017,3.1,1,4,13.2,0,0
2010,8,20,5,0,70.3723,-146.0422,342,0.9,1.1,0.1,25,3,99,1017,3.2,5,-1,13.2,0,0
2010,8,20,6,0,70.3724,-146.0421,176,0.7,0.9,0.1,24,nan,99,1017,3,-4,5,13.1,0,0
2010,8,20,7,0,70.3724,-146.0421,32,1.2,1.4,0.1,20,2.9,99,1018,2.9,2,0,13,0,0
2010,8,20,8,0,70.3723,-146.0421,30,2.1,2.7,0.2,18,2.8,99,1018,2.8,4,4,13,0,0
2010,8,20,9,0,70.3724,-146.0421,54,1.6,2,0.2,21,2.9,99,1018,2.8,6,-4,13,0,0
2010,8,20,10,0,70.3723,-146.0421,78,1.2,1.6,0.1,20,2.8,99,1018,2.8,-1,7,13,0,0
2010,8,20,11,0,70.3724,-146.0421,86,1.2,1.5,0.1,23,2.8,99,1018,2.8,6,4,12.9,0,0
2010,8,20,12,0,70.3724,-146.0421,182,0.8,1,0.1,3,2.7,99,1019,2.8,0,3,12.9,0,0
2010,8,20,13,0,70.3723,-146.0422,82,1.8,2.2,0.2,24,2.8,99,1019,2.8,1,4,12.9,0,0
2010,8,20,14,0,70.3724,-146.0422,113,2.7,3.1,0.2,25,3,99,1019,2.8,-4,2,12.9,0,0
2010,8,20,15,0,70.3724,-146.0422,96,2.4,2.8,0.2,24,3.2,99,1019,2.8,-9,11,12.9,0,0
2010,8,20,16,0,70.3724,-146.0421,72,2,2.5,0.2,24,3.3,99,1019,2.8,0,1,12.9,0,0
2010,8,20,17,0,70.3723,-146.0422,56,3.1,3.5,0.2,21,3.4,99,1019,2.8,3,2,12.9,0,0
2010,8,20,18,0,70.3724,-146.0422,65,2.9,3.4,0.2,20,3.4,99,1019,2.8,1,4,12.9,0,0
2010,8,20,19,0,70.3723,-146.0421,56,2.7,3.2,0.2,20,3.5,99,1019,2.8,4,-1,13,0,0
2010,8,20,20,0,70.3723,-146.0423,54,3.1,3.7,0.3,24,3.6,99,1019,2.9,-1,8,13.3,0,0
2010,8,20,21,0,70.3724,-146.0422,59,2.9,3.8,0.4,23,3.7,99,1020,2.9,-2,6,13.6,0,0
2010,8,20,22,0,70.3724,-146.0422,96,2.5,2.8,0.2,23,4,99,1019,2.9,1,2,13.4,0,0
2010,8,20,23,0,70.3724,-146.0422,49,2.9,3.7,0.4,21,4.2,99,1020,3,-3,3,13.4,0,0
2010,8,21,0,0,70.3723,-146.0422,62,3.1,3.8,0.3,23,3.6,99,1019,nan,-1,2,13.5,0.1,0
2010,8,21,1,0,70.3724,-146.0423,54,4.7,5.4,0.3,25,nan,99,1019,3,2,0,13.5,12.8,0
2010,8,21,2,0,70.3724,-146.0422,44,3.1,3.7,0.3,27,3.2,99,1019,3,3,2,13.8,0,0
2010,8,21,3,0,70.3723,-146.0423,16,3.5,4.3,0.3,25,3.8,99,1019,3,1,5,13.8,0,0
2010,8,21,4,0,70.3723,-146.0422,16,4.7,5.4,0.3,27,4.5,98,1019,3,6,2,13.8,0,0
2010,8,21,5,0,70.3723,-146.0422,30,4.5,5.2,0.3,32,4.7,98,1019,3,-3,12,13.3,0,0
2010,8,21,6,0,70.3723,-146.0422,23,4.8,5.5,0.3,24,4.9,98,1019,3,1,2,13.2,0,0
2010,8,21,7,0,70.3723,-146.0422,23,4.3,4.9,0.3,23,4.6,98,1019,2.9,1,6,13.1,0,0
2010,8,21,8,0,70.3723,-146.0421,18,4.1,4.7,0.3,21,4.2,99,1018,2.9,-2,2,13,0,0
2010,8,21,9,0,70.3723,-146.0423,28,3.6,4,0.2,25,4.1,97,1018,2.9,1,7,13,0,0
2010,8,21,10,0,70.3723,-146.0422,45,4.6,5.2,0.3,25,4.2,97,1018,2.9,-3,2,13,0,0
2010,8,21,11,0,70.3723,-146.0422,47,4.5,5.1,0.3,34,4.3,96,1018,2.8,6,0,12.9,0,0
2010,8,21,12,0,70.3723,-146.0422,17,2.6,2.9,0.2,31,3.6,97,1018,2.8,-3,4,12.9,0,0
2010,8,21,13,0,70.3723,-146.0421,10,3.3,3.8,0.2,25,3.6,97,1018,2.8,0,1,12.9,0,0
2010,8,21,14,0,70.3724,-146.0422,3,3.3,3.8,0.2,21,3.7,97,1018,2.8,3,10,13,0,0
2010,8,21,15,0,70.3723,-146.0421,0,3.5,4.1,0.3,23,4.1,94,1017,2.7,-2,6,14.1,0,0
2010,8,21,16,0,70.3723,-146.0421,352,3.1,3.6,0.2,20,4.3,93,1017,2.7,4,3,13.8,0,0
2010,8,21,17,0,70.3723,-146.0421,357,2.7,3.1,0.2,27,3.9,93,1017,2.9,1,4,13.8,0,0
2010,8,21,18,0,70.3723,-146.0422,354,2.7,3.1,0.2,27,3.7,95,1017,2.8,-7,8,13.6,0,0
2010,8,21,19,0,70.3723,-146.0422,342,3.1,3.4,0.2,25,3.8,95,1017,2.8,1,6,13.8,0,0
2010,8,21,20,0,70.3723,-146.0421,346,3.1,3.5,0.2,21,3.8,94,1017,3.2,-1,6,14.1,0,0
2010,8,21,21,0,70.3723,-146.0422,343,3.2,3.6,0.2,21,4,94,1017,3,0,4,13.7,0,0
2010,8,21,22,0,70.3724,-146.0423,333,2.9,3.2,0.2,23,4.1,94,1016,2.9,-4,11,15.4,0,0
2010,8,21,23,0,70.3723,-146.0422,339,3.4,3.8,0.2,23,4.3,94,1016,2.9,2,8,13.5,0,0
2010,8,22,0,0,70.3723,-146.0423,352,4,4.5,0.3,28,4.1,96,1016,2.9,4,-1,14,0,0
2010,8,22,1,0,70.3723,-146.0423,350,3.9,4.5,0.3,32,4,98,1016,3.1,-7,4,13.3,0,0
2010,8,22,2,0,70.3723,-146.0422,353,3.8,4.3,0.3,32,3.9,99,1015,3.1,-6,4,13.4,0,0
2010,8,22,3,0,70.3723,-146.0423,3,4.2,4.9,0.3,34,4.2,99,1015,3.1,-1,9,13.2,0,0
2010,8,22,4,0,70.3723,-146.0423,4,4,4.7,0.3,35,4.1,99,1015,3.2,-2,12,13.1,0,0
2010,8,22,5,0,70.3723,-146.0423,3,4.1,4.7,0.3,34,4.1,99,1015,3.3,-3,16,13.1,0,0
2010,8,22,6,0,70.3723,-146.0422,353,2.9,3.5,0.3,30,3.9,99,1015,3.2,6,0,13,0,0
2010,8,22,7,0,70.3723,-146.0421,356,3,3.6,0.3,35,4,99,1015,3.2,-2,1,13,0,0
2010,8,22,8,0,70.3723,-146.0421,353,2.8,3.2,0.3,31,3.9,99,1015,3.1,4,-5,13,0,0
2010,8,22,9,0,70.3723,-146.0422,349,2.5,3,0.2,31,3.8,99,1015,3.1,-1,7,13,0,0
2010,8,22,11,0,70.3723,-146.0421,350,3.3,3.8,0.3,28,4,99,1015,3.1,-1,2,12.9,0,0
2010,8,22,12,0,70.3723,-146.0422,4,3.7,4.4,0.3,28,3.8,99,1015,3.1,-2,10,12.9,0,0
2010,8,22,13,0,70.3723,-146.0421,340,2.3,2.8,0.3,37,3.6,99,1016,3.1,-3,13,12.9,0,0
2010,8,22,14,0,70.3724,-146.0422,344,2.3,2.8,0.2,35,3.6,99,1016,3,-10,8,12.9,0,0
2010,8,22,16,0,70.3723,-146.0422,325,2.3,3,0.3,34,3.8,99,1016,2.9,-13,1,12.9,0,0
2010,8,22,17,0,70.3724,-146.0423,343,2.4,2.8,0.2,31,3.8,99,1016,2.9,1,-3,13,0,0
2010,8,22,18,0,70.3724,-146.0423,7,2.4,2.8,0.2,38,3.7,99,1017,2.9,-2,6,13.1,0,0
2010,8,22,19,0,70.3723,-146.0422,339,1.6,1.9,0.2,44,3.5,99,1017,2.8,2,5,13.1,0,0
2010,8,22,20,0,70.3723,-146.0423,4,4,4.7,0.3,35,4.1,99,1015,3.2,-2,12,13.1,0,0
2010,8,22,21,0,70.3724,-146.0422,298,1.6,1.9,0.2,40,3.7,99,1017,3,10,-2,13.3,0,0
2010,8,22,22,0,70.3723,-146.0422,288,1.9,2.3,0.2,27,4,99,1018,3.1,-6,1,15.1,0,0
2010,8,22,23,0,70.3724,-146.0422,294,1.7,1.9,0.2,24,4,99,1018,3.3,1,8,15.2,0,0
2010,8,23,0,0,70.3723,-146.0422,336,2.4,2.8,0.2,23,4.1,99,1018,3.3,-1,8,13.5,0,0
2010,8,23,2,0,70.3723,-146.0422,344,1.9,2.3,0.2,30,4.1,99,1019,3.3,5,6,13.3,0,0
2010,8,23,3,0,70.3723,-146.0423,342,1.9,2.2,0.2,34,4.2,99,1019,3.4,-1,6,13.4,0,0
2010,8,23,5,0,70.3723,-146.0422,1,3.2,3.7,0.2,27,4.5,99,1019,3.6,2,0,13.1,0,0
2010,8,23,7,0,NAN,-146.0421,8,2.6,3.1,0.2,24,4.4,99,1020,3.2,5,8,13,0,0
2010,8,23,9,0,70.3723,-146.0421,274,2,2.4,0.2,17,3.9,99,1021,3.5,-3,5,13,0,0
2010,8,23,10,0,70.3723,-146.0421,325,1.8,2.3,0.3,23,4.8,99,1021,3.5,3,4,12.9,0,0
2010,8,23,11,0,70.3723,-146.0421,296,2.5,2.7,0.2,20,4.4,99,1021,3.3,-2,9,12.9,0,0
2010,8,23,12,0,70.3723,-146.0421,299,3.4,3.7,0.2,16,4.3,99,1021,3.5,-5,2,12.9,0,0
2010,8,23,14,0,70.3723,-146.0421,316,3.3,3.9,0.3,21,4,99,1022,3.2,3,0,12.9,0,0
2010,8,23,15,0,70.3723,-146.0422,325,3.2,4.2,0.4,21,3.8,99,1022,3.4,6,1,12.8,0,0
2010,8,23,16,0,70.3723,-146.0422,323,1.8,2.2,0.2,32,3.6,99,1023,3.3,-7,2,12.8,0,0
2010,8,23,17,0,70.3723,-146.0423,311,1.8,2.3,0.2,38,3.6,99,1023,3.3,0,1,12.9,0,0
2010,8,23,18,0,70.3723,-146.0423,299,1.6,2,0.2,40,3.6,99,1023,3.2,-9,4,12.9,0,0
2010,8,23,19,0,70.3723,-146.0423,282,2,2.4,0.2,38,3.5,99,1024,3.2,-4,4,12.9,0,0
2010,8,23,20,0,70.3724,-146.0422,271,2.7,3.1,0.2,18,3.6,99,1024,3.3,1,0,12.9,0,0
2010,8,23,21,0,70.3724,-146.0421,270,3.3,3.8,0.2,17,3.7,99,1024,3.3,3,13,12.9,0,0
2010,8,23,22,0,70.3723,-146.042,278,3.6,4.1,0.3,18,3.9,99,1024,3.3,0,0,13,0,0
2010,8,23,23,0,70.3723,-146.042,280,3.4,3.9,0.3,17,3.8,99,1024,3.3,0,-3,13,0,0
2010,8,24,0,0,70.3723,-146.042,281,3.6,4.1,0.3,17,3.7,99,1024,3.3,-10,0,13,0,0
2010,8,24,1,0,70.3723,-146.042,275,3.4,3.8,0.2,21,3.8,99,1025,3.2,0,8,13,0,0
2010,8,24,2,0,70.3723,-146.0422,268,2.6,2.9,0.2,23,3.8,99,1025,3.3,2,2,13,0,0
2010,8,24,3,0,70.3723,-146.0421,264,3.3,3.8,0.2,21,3.7,99,1025,3.5,5,3,13,0,0
2010,8,24,5,0,70.3723,-146.0421,275,3.8,4.5,0.3,23,3.7,99,1025,3.4,-2,-14,12.9,0,0
2010,8,24,6,0,70.3723,-146.0216,270,2.9,3.3,0.2,23,3.8,99,1025,3.2,-3,9,12.9,0,0
2010,8,24,7,0,70.3724,-146.0422,271,1.9,2.3,0.2,34,3.8,99,1025,2.9,-4,8,12.8,0,0
2010,8,24,8,0,70.3724,-146.0422,309,2.8,3.5,0.3,25,3.7,99,1025,2.9,2,9,12.8,0,0
2010,8,24,9,0,70.3724,-146.0422,309,1.7,2.1,0.2,28,3.7,99,1025,2.8,-4,9,12.8,0,0
2010,8,24,10,0,70.3724,-146.0421,312,2,2.3,0.2,24,3.6,99,1026,2.8,1,6,12.8,0,0
2010,8,24,11,0,70.3724,-146.0421,275,1.5,1.7,0.1,27,3.6,99,1026,2.9,-3,5,12.8,0,0
2010,8,24,12,0,70.3724,-146.0421,288,1.8,2.1,0.2,24,3.6,99,1026,2.9,0,8,12.8,0,0
2010,8,24,13,0,70.3724,-146.0422,291,1.9,2.3,0.2,24,3.6,99,1026,2.8,-5,7,12.8,0,0
2010,8,24,14,0,70.3724,-146.0421,295,2.4,2.7,0.2,24,3.6,99,1026,2.8,-6,3,12.8,0,0
2010,8,24,15,0,70.3723,-146.0421,277,2.4,2.6,0.2,23,3.6,99,1026,2.8,0,1,12.8,0,0
2010,8,24,16,0,70.3724,-146.0421,278,1.8,2.1,0.2,28,3.5,99,1026,2.9,-2,-1,12.8,0,0
2010,8,24,17,0,70.3724,-146.0422,246,1.6,1.9,0.1,31,3.6,99,1026,2.9,-7,5,12.9,0,0
2010,8,24,18,0,70.3723,-146.0422,265,1.6,2,0.2,27,3.5,99,1026,3,4,0,12.9,0,0
2010,8,24,19,0,70.3724,-146.0422,272,1.6,1.8,0.2,30,3.6,99,1026,3.1,-2,0,13,0,0
2010,8,24,20,0,70.3724,-146.0423,319,1.4,1.6,0.1,31,3.8,99,1026,3.2,8,1,13,0,0
2010,8,24,21,0,70.3724,-146.0422,312,1.5,1.8,0.1,30,4,99,1026,3.4,-4,-2,13.1,0,0
2010,8,24,22,0,70.3724,-146.0422,1,1.3,1.5,0.1,30,4.2,99,1026,3.2,-1,7,13.3,0,0
2010,8,24,23,0,70.3724,-146.0422,353,1.3,1.5,0.1,27,4.3,98,1026,3.7,5,2,13.4,0,0
2010,8,25,0,0,70.3724,-146.0422,34,1.4,1.8,0.2,24,5.1,98,1026,3.9,1,3,13.5,0,0
2010,8,25,1,0,70.3724,-146.0421,10,1.7,2,0.1,27,4.7,98,1026,3.9,-3,0,13.4,0,0
2010,8,25,2,0,70.3724,-146.0422,16,2.3,3.2,0.2,20,4.8,99,1026,3.7,0,16,13.3,0,0
2010,8,25,3,0,70.3724,-146.0422,14,3,3.9,0.5,11,4.9,98,1025,3.6,0,7,13.2,0,0
2010,8,25,4,0,70.3723,-146.0422,41,2.5,2.7,0.2,20,4.9,99,1025,3.6,-1,5,13.1,11,0
2010,8,25,5,0,70.3724,-146.0422,62,1.7,2,0.2,27,4.1,99,1025,3.6,-6,7,13,0,0
2010,8,25,6,0,70.3724,-146.0422,59,1.7,2.8,0.1,24,4.1,99,1025,3.7,-2,6,13,0,0
2010,8,25,7,0,70.3723,-146.0422,64,1.4,1.9,0.2,25,4.1,99,1025,3.6,5,2,13,0,0
2010,8,25,8,0,70.3724,-146.0423,76,2.6,3.1,0.2,20,4,99,1025,3.8,-6,3,12.9,0,0
2010,8,25,9,0,70.3724,-146.0423,69,3.2,3.6,0.2,17,4.1,99,1024,3.7,-2,5,12.9,0,0
2010,8,25,10,0,70.3724,-146.0423,48,2.9,3.3,0.2,17,4.2,99,1024,3.7,-6,2,12.9,0,0
2010,8,25,11,0,70.3724,-146.0422,58,NAN,3.5,0.2,20,4.1,99,1024,3.6,5,2,12.9,0,0
2010,8,25,12,0,70.3724,-146.0422,49,3.2,3.6,0.3,17,3.5,99,1024,3.4,0,2,12.8,0,0
2010,8,25,13,0,70.3724,-146.0422,56,3.6,4.3,0.3,24,4.3,99,1023,3.5,0,8,12.8,0,0
2010,8,25,14,0,70.3724,-146.0423,49,4,4.6,0.3,25,4.2,99,1023,3.4,-1,5,12.8,0,0
2010,8,25,15,0,70.3724,-146.0423,47,4,4.6,0.3,25,4.2,99,1023,3.4,-4,9,12.8,0,0
2010,8,25,16,0,70.3724,-146.0423,32,3.8,4.5,0.2,23,3.9,99,1022,3.3,4,3,13.1,0,0
2010,8,25,17,0,70.3724,-146.0423,28,4.3,5.1,0.3,24,4.1,99,1022,3.3,4,1,15.5,0,0
2010,8,25,18,0,70.3724,-146.0423,40,5.2,5.9,0.4,38,4.1,98,1022,3.2,2,9,14.4,0,0
2010,8,25,19,0,70.3723,-146.0423,38,5.1,6,0.4,45,4,98,1022,3,-5,4,13.8,0,0
2010,8,25,20,0,70.3724,-146.0423,37,5.3,6.4,0.5,49,3.6,98,1022,3,-4,5,13.8,0,0